www.pogodaiklimat.ru

Погода и климат >> Архив погоды >> Австралия >> Западная Австралия >> Леонора аэропорт


ПОГОДА в Леонора аэропорту

  • Прогноз погоды в Леонора аэропорту
  • Монитор погоды в Леонора аэропорту

АРХИВ ПОГОДЫ в Леонора аэропорту

Время (UTC), дата Ветер
(напр.,м/с)
 
Видим.   Явления Облачность Т
(С)
Тd
(С)
f
(%)
Тe
(С)
Тes
(С)
Комфортность P
(гПа)
Po
(гПа)
Тmin
(С)
Tmax
(С)
R
(мм)
R24
(мм)
S
(см)
07 15.08 ЮЗ 6 н/о 1/1 1000 м
[]
+16.1 +5.1 48 +15 +17 1018.9 975.3
09 15.08 ЮЗ 5 н/о н/о +15.0 +6.8 58 +14 +14 1020.0 976.4
10 15.08 Ю 4 н/о 10/10 1000 м
[]
+13.7 +6.6 62 +12 +12 1021.0 977.3
12 15.08 Ю 4 н/о н/о +12.0 +7.1 72 +10 +10 1022.1 978.4
13 15.08 ЮВ 4 н/о 1/1 1000 м
[]
+11.4 +7.5 77 +9 +9 1022.1 978.4 +17.3
15 15.08 ЮВ 3 н/о н/о +10.4 +7.3 81 +8 +8 1022.4 978.7
16 15.08 ЮВ 3 н/о 5/5 1000 м
[]
+9.7 +7.3 85 +8 +8 1022.5 978.8
18 15.08 В 3 н/о н/о +9.1 +6.9 86 +7 +7 1022.2 978.5
19 15.08 СВ 2 н/о н/о +8.0 +6.6 91 +6 +6 1022.1 978.4
21 15.08 штиль 0 н/о н/о +5.4 +4.4 93 +4 +4 1021.8 978.1
22 15.08 штиль 0 2000 м н/о +5.0 +4.3 95 +4 +4 1022.0 978.3
00 16.08 штиль 0 н/о н/о +8.2 +7.0 92 +7 +7 1022.9 979.2
01 16.08 СВ 3 н/о 1/1 200 м
[]
+10.5 +7.4 81 +9 +13 1023.5 979.7 +4.6
03 16.08 Ю 2 н/о н/о +14.1 +5.5 56 +14 +14 1022.5 978.8
04 16.08 СВ 3 н/о 1/1 600 м
[]
+15.3 +4.7 49 +15 +25 1021.6 977.9
06 16.08 СЗ 4 н/о н/о +17.0 +4.0 42 +17 +17 1019.2 975.6
07 16.08 С 3 н/о н/о +18.0 +4.2 40 +18 +18 1018.6 975.0
09 16.08 СЗ 5 н/о н/о +17.9 +1.0 32 +18 +18 1018.0 974.5
10 16.08 СЗ 2 н/о н/о +15.8 +2.2 40 +16 +16 1018.0 974.5
12 16.08 С 4 н/о н/о +14.5 +3.3 47 +14 +14 1018.0 974.5
13 16.08 С 4 н/о н/о +14.1 +2.4 45 +13 +13 1017.8 974.3 +18.9
15 16.08 СЗ 4 н/о н/о +12.3 +2.7 52 +11 +11 1016.8 973.3
16 16.08 СЗ 4 н/о н/о +11.8 +3.1 55 +10 +10 1016.6 973.1
18 16.08 З 4 н/о н/о +10.3 +1.4 54 +8 +8 1016.7 973.2
19 16.08 З 5 н/о 4/0 2000 м
[]
+10.0 +0.9 53 +7 +7 1017.0 973.5
21 16.08 З 5 н/о н/о +10.2 +3.9 65 +8 +8 1018.5 974.9
22 16.08 З 5 н/о 8/0 2000 м
[]
+9.8 +3.8 66 +7 +7 1019.1 975.5
00 17.08 З 6 н/о н/о +10.5 +3.1 60 +7 +7 1020.8 977.1
01 17.08 ЮЗ 7 н/о н/о +11.6 +2.6 54 +9 +9 1021.1 977.4 +8.2
03 17.08 З 8 н/о н/о +13.8 +0.1 39 +12 +12 1021.7 978.0
04 17.08 ЮЗ 7 н/о н/о +15.1 -1.0 33 +13 +13 1021.5 977.8
06 17.08 ЮЗ 7 н/о н/о +16.0 -3.0 27 +15 +15 1021.2 977.5
07 17.08 ЮЗ 7 н/о н/о +16.1 -4.4 24 +15 +15 1021.6 977.9
09 17.08 ЮЗ 7 н/о н/о +15.0 -4.8 25 +14 +14 1023.0 979.3
10 17.08 ЮЗ 4 н/о н/о +13.3 -3.4 31 +12 +12 1024.0 980.2
12 17.08 ЮЗ 3 н/о н/о +10.0 -3.0 40 +8 +8 1026.3 982.4
13 17.08 ЮЗ 3 н/о н/о +8.9 -2.1 46 +7 +7 1026.8 982.9 +16.9
15 17.08 Ю 3 н/о н/о +6.4 -1.7 56 +4 +4 1027.4 983.5
16 17.08 ЮЗ 2 н/о н/о +5.3 -1.2 63 +3 +3 1027.8 983.8
18 17.08 штиль 0 н/о н/о +3.6 -1.3 70 +3 +3 1027.8 983.8
19 17.08 ЮЗ 2 н/о н/о +3.3 -1.1 73 +1 +1 1028.1 984.1
21 17.08 ЮЗ 2 н/о н/о +1.8 -1.4 79 -1 -1 1028.4 984.4
22 17.08 штиль 0 н/о н/о +1.7 -1.0 82 +1 +1 1028.8 984.8
00 18.08 ЮЗ 3 н/о н/о +6.4 +1.1 69 +4 +4 1031.2 987.1
01 18.08 Ю 6 н/о н/о +10.2 +1.8 56 +7 +7 1031.7 987.6 +1.0
03 18.08 ЮВ 5 н/о н/о +12.6 +1.6 47 +11 +11 1031.3 987.2
04 18.08 Ю 4 н/о н/о +14.0 -0.1 38 +13 +13 1030.4 986.3
06 18.08 ЮВ 4 н/о н/о +15.5 -2.0 30 +15 +15 1029.1 985.1
07 18.08 ЮВ 5 н/о н/о +16.8 -5.0 22 +16 +16 1028.8 984.8
09 18.08 ЮВ 5 н/о н/о +15.9 -3.6 26 +15 +15 1029.4 985.4
10 18.08 В 4 н/о н/о +14.2 -4.5 27 +13 +13 1030.0 986.0
12 18.08 ЮВ 3 н/о н/о +11.8 -3.1 35 +11 +11 1031.7 987.6
13 18.08 ЮВ 4 н/о н/о +11.0 -2.4 39 +9 +9 1031.9 987.8 +17.5
15 18.08 ЮВ 3 н/о н/о +9.0 -1.1 49 +7 +7 1032.2 988.1
16 18.08 В 2 н/о н/о +7.2 -1.5 54 +6 +6 1032.2 988.1
18 18.08 ЮВ 3 н/о н/о +6.0 -1.6 58 +3 +3 1032.5 988.3
19 18.08 ЮВ 3 н/о н/о +6.0 -1.4 59 +3 +3 1032.6 988.4
21 18.08 ЮВ 4 н/о н/о +4.1 -1.7 66 0 0 1033.2 989.0
22 18.08 ЮВ 5 н/о н/о +4.2 -1.4 67 -0 -0 1034.0 989.8
00 19.08 В 4 н/о н/о +7.1 -1.6 54 +4 +4 1035.9 991.6
01 19.08 В 6 н/о н/о +10.7 -0.4 46 +8 +8 1036.4 992.1 +3.8
03 19.08 В 5 н/о н/о +13.7 -0.7 37 +12 +12 1035.9 991.6
04 19.08 В 6 н/о н/о +14.5 -1.2 34 +13 +13 1035.0 990.7
06 19.08 В 5 н/о н/о +17.1 -1.5 28 +17 +17 1032.7 988.5
07 19.08 ЮВ 5 н/о н/о +17.6 -2.6 25 +17 +17 1032.2 988.1
09 19.08 ЮВ 5 н/о н/о +17.1 -2.5 26 +17 +17 1032.3 988.2
10 19.08 ЮВ 4 н/о н/о +15.6 -2.3 29 +15 +15 1032.9 988.7
12 19.08 ЮВ 4 н/о н/о +12.5 -1.8 37 +11 +11 1034.0 989.8
13 19.08 ЮВ 4 н/о н/о +11.8 -1.7 39 +10 +10 1034.1 989.9 +18.4
15 19.08 ЮВ 4 н/о н/о +9.0 -1.4 48 +7 +7 1034.3 990.1
16 19.08 В 4 н/о н/о +8.4 -1.7 49 +6 +6 1034.3 990.1
18 19.08 В 2 н/о н/о +6.5 -1.2 58 +5 +5 1034.1 989.9
19 19.08 В 2 н/о н/о +5.1 -2.0 60 +3 +3 1034.0 989.8
21 19.08 В 3 н/о н/о +4.6 -1.4 65 +2 +2 1034.5 990.3
22 19.08 В 2 н/о н/о +3.9 -1.9 66 +1 +1 1035.1 990.8
00 20.08 В 3 н/о н/о +9.0 -0.1 53 +7 +7 1036.3 992.0
01 20.08 СВ 5 н/о н/о +13.1 +0.8 43 +12 +12 1036.1 991.8 +3.5
03 20.08 В 5 н/о н/о +16.8 -0.4 31 +16 +16 1034.7 990.5
04 20.08 В 6 н/о н/о +17.2 -2.4 26 +16 +16 1033.6 989.4
06 20.08 В 5 н/о н/о +19.6 -3.3 21 +19 +19 1031.5 987.4
07 20.08 В 4 н/о н/о +20.0 -3.0 21 +20 +20 1030.8 986.7
09 20.08 В 5 н/о н/о +19.4 -4.1 20 +19 +19 1030.4 986.3
10 20.08 В 4 н/о н/о +17.7 -4.3 22 +18 +18 1030.6 986.5
12 20.08 В 4 н/о н/о +14.5 -3.8 28 +14 +14 1031.1 987.0
13 20.08 В 4 н/о н/о +13.5 -3.3 31 +12 +12 1031.3 987.2 +20.8
15 20.08 В 4 н/о н/о +11.8 -2.8 36 +10 +10 1030.7 986.6
16 20.08 В 4 н/о н/о +10.9 -2.5 39 +9 +9 1030.5 986.4
18 20.08 ЮВ 2 н/о н/о +6.1 -3.3 51 +5 +5 1030.8 986.7
19 20.08 В 3 н/о н/о +7.8 -2.2 49 +6 +6 1030.2 986.1
21 20.08 СВ 2 н/о н/о +5.9 -2.2 56 +4 +4 1030.2 986.1
22 20.08 штиль 0 н/о н/о +3.3 -3.1 63 +3 +3 1030.7 986.6
00 21.08 В 5 н/о н/о +10.5 -1.5 43 +8 +8 1031.0 986.9
01 21.08 В 5 н/о н/о +14.2 -1.8 33 +13 +13 1030.6 986.5 +3.3
03 21.08 СВ 5 н/о н/о +18.3 -2.6 24 +18 +18 1029.2 985.2
04 21.08 СВ 6 н/о н/о +20.0 -3.6 20 +20 +20 1027.9 983.9
06 21.08 СВ 5 н/о н/о +22.2 -5.6 15 +21 +21 комфорт 1025.9 982.0
07 21.08 СВ 5 н/о н/о +22.8 -7.0 13 +21 +21 комфорт 1025.1 981.3
09 21.08 СВ 4 н/о н/о +21.8 -7.8 13 +20 +20 1024.6 980.8
10 21.08 В 3 н/о н/о +19.7 -7.6 15 +20 +20 1024.9 981.1
12 21.08 СВ 3 н/о н/о +15.2 -5.8 23 +15 +15 1025.8 981.9
13 21.08 СВ 3 н/о н/о +14.9 -5.5 24 +14 +14 1025.9 982.0 +23.1
15 21.08 СВ 3 н/о н/о +13.1 -5.4 27 +12 +12 1025.5 981.6
16 21.08 СВ 3 н/о н/о +12.4 -5.6 28 +11 +11 1025.1 981.3
18 21.08 СВ 3 н/о н/о +11.2 -6.2 29 +10 +10 1024.4 980.6
19 21.08 СВ 3 н/о н/о +11.8 -6.1 28 +11 +11 1024.1 980.3
21 21.08 СВ 4 н/о н/о +9.3 -6.1 33 +7 +7 1024.1 980.3
22 21.08 Ю 2 н/о н/о +5.6 -6.6 41 +4 +4 1024.6 980.8
00 22.08 СВ 2 н/о н/о +13.1 -4.5 29 +13 +13 1025.2 981.4
01 22.08 С 6 н/о н/о +18.5 -6.2 18 +18 +18 1024.9 981.1 +3.9
03 22.08 С 7 н/о н/о +22.8 -10.4 10 +20 +20 1023.7 979.9
04 22.08 С 8 н/о н/о +23.4 -9.9 10 +21 +21 комфорт 1022.4 978.7
06 22.08 С 5 н/о н/о +24.2 -13.7 7 +21 +21 комфорт 1020.3 976.7
07 22.08 С 8 н/о н/о +24.9 -13.2 7 +22 +22 комфорт 1019.7 976.1

 

Местоположение метеостанции Леонора аэропорт (Западная Австралия, Австралия): широта -28.88 долгота 121.32 высота над уровнем моря 370 м.

В архиве по умолчанию представлена погода в Леонора аэропорту за последнюю неделю. Архивные данные за месяц целиком и за предыдущие месяцы, начиная с января 2011 года, Вы можете получить, выбрав интересующий диапазон дат из раскрывающегося списка и нажав кнопку "Ввод!".


*Определитесь, кто Вы:
робот инопланетянин человек

Внимание! Время в таблицах - всемирное. Для получения местного времени необходимо прибавить поправку, которая равна 8 ч.

Смотрите также архив погоды в соседних городах и на ближайших метеорологических станциях:

Погода в Лавертоне (Западная Австралия, Австралия) (110 км)
Погода в Леинстере (Западная Австралия, Австралия) (130 км)
Погода в Калгурли-Боулдере (Западная Австралия, Австралия) (212 км)
Погода в Саутерн Кросс (Западная Австралия, Австралия) (323 км)
Погода в Маунт Магнет аэропорту (Западная Австралия, Австралия) (352 км)
Погода в Микатарре (Западная Австралия, Австралия) (372 км)
Погода в Норсмане (Западная Австралия, Австралия) (374 км)
Погода в Салмон Гамс (Западная Австралия, Австралия) (457 км)
Погода в Дауоллину (Западная Австралия, Австралия) (476 км)
Погода в Кандердине (Западная Австралия, Австралия) (498 км)

Пояснения к столбцам:

Ветер - указаны скорость ветра в м/с - средняя за 10 мин, порывы в срок и между сроками (в фигурных скобках) и направление, откуда дует ветер: С - северный, СВ - северо-восточный, В - восточный, ЮВ - юго-восточный, Ю - южный, ЮЗ - юго-западный, З - западный, СЗ - северо-западный.
Видимость - горизонтальная дальность видимости в метрах или километрах. При видимости от 1 до 10 км при отсутствии осадков обычно наблюдается дымка, при ухудшении видимости до 1 км и менее - туман. В сухую погоду видимость может ухудшаться дымом, пылью или мглою.
Явления - указаны атмосферные явления, наблюдавшиеся в срок или в последний час перед сроком; фигурными скобками обозначены явления, наблюдавшиеся между сроками (за 1-3 часа до срока); квадратными скобками обозначены град или гололедные отложения с указанием их диаметра в мм.
Облачность - указаны через наклонную черту общая и нижняя облачность в баллах и высота нижней границы облаков в метрах; квадратными скобками обозначены формы облаков: Ci - перистые, Cs - перисто-слоистые, Cc - перисто-кучевые, Ac - высококучевые, As - высокослоистые, Sc - слоисто-кучевые, Ns - слоисто-дождевые, Cu - кучевые, Cb - кучево-дождевые. Подробнее классификацию облаков см. в Атласе облаков (PDF).
T - Температура воздуха - температура, измеренная на высоте 2 м над землей.
Td - Температура точки росы - температура, при понижении до которой содержащийся в воздухе водяной пар достигнет насыщения.
f - Относительная влажность воздуха - влажноcть воздуха, измеренная на высоте 2 м над землей.
Te - Эффективная температура - температура, которую ощущает одетый по сезону человек в тени. Характеристика душности погоды. При расчете учитывается влияние влажности воздуха и скорости ветра на теплоощущения человека.
Tes - Эффективная температура на солнце - температура, которую ощущает человек, с поправкой на солнечный нагрев. Характеристика знойности погоды. Зависит от высоты солнца над горизонтом, облачности и скорости ветра. Ночью, в пасмурную погоду, а также при ветре 12 м/с и более поправка равна нулю.
P - Атмосферное давление - приведенное к уровню моря атмосферное давление.
Po - Атмосферное давление - измеренное на уровне метеостанции атмосферное давление.
Tmin - Минимальная температура - минимум температуры воздуха на высоте 2 м над землей.
Tmax - Максимальная температура - максимум температуры воздуха на высоте 2 м над землей.
R - Количество осадков - Количество выпавших осадков за период времени, мм. При наведении курсора мыши на число - период времени, за который выпало указанное количество осадков.
R24 - Количество осадков - Количество выпавших осадков за 24 часа, мм.
S - Снежный покров - Высота снежного покрова, см. При наведении курсора мыши на число - состояние снежного покрова и степень покрытия местности в баллах.